Location: Basse Occidentale du Courleau
(48.3833°N, 4.8333°W)
Time: 19:41:12
(UTC+00:00)

Cosmos 1408 Rocket - Pass Details

Date: 05 July 2020
Orbit: 602 x 630 km, 82.6° (Epoch: 05 August)

Event Time Altitude Azimuth Distance (km) Brightness Sun altitude
Exits shadow 23:35:55 30° 126° (SE) 1,116 4.5 -18.1°
Maximum altitude 23:37:10 36° 91° (E) 982 4.4 -18.2°
Drops below altitude 10° 23:41:13 10° 25° (NNE) 1,999 7.0 -18.3°
Sets 23:43:35 0° 17° (NNE) 2,915 8.1 -18.4°
